Regional Weather Roundup
Issued by NWS

Home | Current Version | Previous Version | Text Only | Print | Product List | Glossary On
Versions: 1 2 3 4 5 6 7 8 9 10 11 12 13 14 15 16 17 18 19 20 21 22 23 24 25 26 27 28 29 30 31 32 33 34 35 36 37 38 39 40 41 42 43 44 45 46 47 48 49 50
000
ASUS43 KMKX 290900
RWRWI

WISCONSIN REGIONAL WEATHER ROUNDUP
NATIONAL WEATHER SERVICE MILWAUKEE/SULLIVAN WI
400 AM CDT FRI APR 29 2016

NOTE: "FAIR" INDICATES FEW OR NO CLOUDS BELOW 12,000 FEET WITH NO
SIGNIFICANT WEATHER AND/OR OBSTRUCTIONS TO VISIBILITY.

WIZ001-002-006>008-014>016-023>028-291000-
NORTHWEST WISCONSIN

CITY           SKY/WX    TMP DP  RH WIND       PRES   REMARKS
SUPERIOR ARPT  CLOUDY    28  28  98 CALM      30.17R
ASHLAND        CLOUDY    27  26  96 SW5       30.16R WCI  22
HAYWARD        MOCLDY    28  24  85 NE3       30.14R
SIREN          CLOUDY    30  26  86 CALM      30.15R
CUMBERLAND     CLOUDY    34  28  80 NW3       30.14R
RICE LAKE      CLOUDY    38  36  90 SW6       30.15S WCI  34
CHETEK         CLOUDY    40  37  89 SW5       30.15R
LADYSMITH      CLOUDY    40  37  87 S3        30.15R
EAU CLAIRE     NOT AVBL
MENOMONIE      CLOUDY    39  39  99 W5        30.15R
NEW RICHMOND   CLOUDY    38  38 100 SW6       30.16R WCI  33
OSCEOLA        CLOUDY    38  38 100 CALM      30.18R
$$

WIZ003>005-009-010-017-018-291000-
NORTH CENTRAL WISCONSIN

CITY           SKY/WX    TMP DP  RH WIND       PRES   REMARKS
MANITOWISH WTR CLOUDY    37  36  95 SW5       30.10S WCI  34
ARBOR VITAE    MOCLDY    39  37  91 CALM      30.10S
WOODRUFF       MOCLDY    39  37  91 CALM      30.10S
RHINELANDER    CLOUDY    37  35  92 CALM      30.11R
EAGLE RIVER    DRIZZLE   37  32  81 CALM      30.10R
LAND O LAKES   CLOUDY    38  33  79 CALM      30.11R
PHILLIPS       CLOUDY    37  34  87 CALM      30.11R
TOMAHAWK       CLOUDY    36  35  95 CALM      30.11S
MEDFORD        CLOUDY    36  36 100 CALM      30.10S
MERRILL        CLOUDY    37  37 100 CALM      30.11S
$$

WIZ029-030-035-036-043>047-291000-
CENTRAL WISCONSIN

CITY           SKY/WX    TMP DP  RH WIND       PRES   REMARKS
WAUSAU         CLOUDY    39  35  86 N3        30.09R
MOSINEE        CLOUDY    36  36 100 N7        30.10S WCI  30
MARSHFIELD     CLOUDY    38  35  89 NE8       30.10R WCI  32
STEVENS POINT  CLOUDY    36  35  96 NW6       30.10R WCI  31
WAUPACA        MOCLDY    41  36  80 N8        30.07F
WAUTOMA        LGT RAIN  38  36  92 N6        30.09  WCI  33
WISC RAPIDS    CLOUDY    39  34  82 N8        30.12R WCI  33
CAMP DOUGLAS   NOT AVBL
$$

WIZ011>013-019>022-031-037>040-048>050-291000-
NORTHEAST WISCONSIN

CITY           SKY/WX    TMP DP  RH WIND       PRES   REMARKS
ANTIGO         CLOUDY    35  34  96 NE5       30.09S WCI  31
SHAWANO        CLOUDY    40  36  84 N6        30.09S
OCONTO         CLOUDY    41  33  74 CALM      30.09R
STURGEON BAY   CLOUDY    39  30  70 N3        30.11R
GREEN BAY      LGT RAIN  42  35  76 NE9       30.08S
MANITOWOC      NOT AVBL
APPLETON       CLOUDY    37  32  81 N7        30.05F WCI  32
CLINTONVILLE   CLOUDY    37  34  87 N8        30.08S WCI  31
OSHKOSH        CLOUDY    42  33  70 NE6       30.05F
$$

WIZ032>034-041-042-053>061-291000-
SOUTHWEST WISCONSIN

CITY           SKY/WX    TMP DP  RH WIND       PRES   REMARKS
LA CROSSE      CLOUDY    40  36  86 N6        30.12R
SPARTA         CLOUDY    37  37  97 N5        30.11R WCI  34
VIROQUA        CLOUDY    36  36 100 NE5       30.07S WCI  32
BOSCOBEL       CLOUDY    41  39  93 CALM      30.10R
PRAIRIE DU CHI CLOUDY    40  36  85 CALM      30.09S
PLATTEVILLE    CLOUDY    40  39  95 N5        30.07S
$$

WIZ056-057-062-063-064-067-068-291000-
SOUTH CENTRAL WISCONSIN

CITY           SKY/WX    TMP DP  RH WIND       PRES   REMARKS
REEDSBURG      CLOUDY    37  36  96 CALM      30.08S
BARABOO/DELLS  CLOUDY    37  36  94 NW3       30.08R
LONE ROCK      NOT AVBL
MINERAL POINT  CLOUDY    41  39  93 N3        30.07R
MADISON        CLOUDY    39  38  96 NW3       30.07R
MIDDLETON      CLOUDY    41  39  95 CALM      30.07R
WATERTOWN      LGT RAIN  39  39 100 NW3       30.06R
MONROE         CLOUDY    37  37 100 N3        30.05S
JANESVILLE     CLOUDY    41  41 100 CALM      30.05S FOG
$$

WIZ051-052-058>065-066-070>072-291000-
SOUTHEAST WISCONSIN

CITY           SKY/WX    TMP DP  RH WIND       PRES   REMARKS
MILWAUKEE      CLOUDY    40  38  93 NE7       30.04S
WAUKESHA       RAIN      36  36 100 N5        30.06S WCI  32
MILWAUKEE/TIMM CLOUDY    37  36  93 NE5       30.06R WCI  34
RACINE         CLOUDY    40  37  89 N7        30.06R
BURLINGTON     CLOUDY    39  38  99 N5        30.04S FOG
KENOSHA        CLOUDY    41  38  89 NE8       30.04S
FOND DU LAC    LGT RAIN  40  37  89 CALM      30.06S
SHEBOYGAN      CLOUDY    40  34  79 NE3       30.06S
WEST BEND      LGT RAIN  37  36  93 CALM      30.05S
JUNEAU         DRIZZLE   38  37  94 NW3       30.07S
$$

LSZ147-162-291000-
LAKE SUPERIOR

STATION/POSITION TIME  TEMP    WIND        PRES    WAVE
                       AIR SEA DIR/SP/G            HT/PER
                 (UTC) (F)     (DEG/KT/KT) (MB)    (FT/S)
W MID LAKE BUOY  0750   37 36   50/  4/  4 1021.7R   1/ 4
DEVILS ISLAND    0800   37      30/  7/  8 1021.6R
SAXON HARBOR     0800   30     180/  4/  5 1020.0S
$$

LMZ867-665-643>646-291000-
LAKE MICHIGAN

STATION/POSITION TIME  TEMP    WIND        PRES    WAVE
                       AIR SEA DIR/SP/G            HT/PER
                 (UTC) (F)     (DEG/KT/KT) (MB)    (FT/S)
CHAMBERS ISLAND  0800   41      10/ 10/ 12 1019.0S
N MID LAKE BUOY  0750   39 38  110/  4/  4 1019.1S   1/ 3
NORTHPORT PIER   0800   40      40/  6/  8 1019.0S
ALGOMA LAKESHORE 0800          330/  6/  7   N/A
KEWAUNEE LAKESHO 0800   42     360/  6/  8 1017.5R
SHEBOYGAN LAKESH 0800   40     100/  5/  6 1018.7R
PORT WASHINGTON  0800   42      50/  4/  6 1018.6
S MID LAKE BUOY  0750   41 40   60/  8/  8 1016.3S   1/ 4
KENOSHA   LAKESH 0800   41      10/ 10/ 12 1016.9S
$$

TC  - TEMPERATURE IN CELSIUS
VSB - VISIBILITY IN STATUTE MILES
WCI - WIND CHILL INDEX
HX  - HEAT INDEX





USA.gov is the U.S. government's official web portal to all federal, state and local government web resources and services.